#timestamp,LO_Frequency,Hit,StdDev 
1560934815.8,286046999.0,N
1560934835.6,286046999.0,N
1560934855.4,286046999.3,N
1560934875.3,286046998.8,N
1560934895.1,286046997.0,N
1560934915.8,286046997.0,N
1560934935.7,286046997.1,N
1560934955.5,286046997.0,N
1560934975.4,286046997.0,N
1560934995.2,286046997.4,N
1560935015.0,286046997.4,N
1560935015.9,286046997.4,N
1560935035.8,286046997.2,N
1560935055.6,286046994.9,Y
1560935075.5,286046996.8,P
1560935095.3,286046997.7,N
1560935115.1,286046997.0,P
1560935135.9,286046999.5,N
1560935155.7,286046996.5,Y
1560935175.5,286047000.8,P
1560935195.4,286046998.6,N
1560935215.2,286046998.4,N
1560935235.1,286046997.1,N
1560935236.0,286046997.1,N
1560935255.8,286046995.4,Y
1560935275.6,286046997.7,P
1560935295.5,286046998.9,P
1560935315.3,286046999.5,N
1560935335.1,286046998.8,N
1560935355.9,286047001.2,N
1560935375.7,286046999.8,N
1560935395.6,286046999.9,N
1560935415.4,286047001.9,N
1560935435.2,286047001.7,N
1560935455.1,286047001.6,N
1560935456.0,286047001.6,N
1560935475.8,286047001.9,N
1560935495.6,286047001.5,N
1560935515.5,286047001.9,N
1560935535.3,286047001.5,N
1560935555.2,286047001.8,N
1560935575.9,286047001.5,N
1560935595.7,286047001.6,N
1560935615.6,286047001.7,N
1560935635.4,286047001.5,N
1560935655.2,286047002.2,N
1560935675.1,286047002.1,N
1560935676.0,286047002.1,N
1560935695.8,286047001.9,N
1560935715.7,286047001.9,N
1560935735.5,286047001.3,N
1560935755.3,286047002.5,N
1560935775.2,286047002.1,N
1560935795.0,286047001.8,N
1560935795.9,286047001.8,N
1560935815.7,286047001.9,N
1560935835.6,286047002.0,N
1560935855.4,286047001.6,N
1560935875.3,286047001.9,N
1560935895.1,286047002.5,Y
1560935915.8,286047001.1,P
1560935935.1,286047001.2,P
1560935955.8,286046998.6,P
1560935975.7,286047001.0,N
1560935995.5,286047000.7,N
1560936015.4,286046998.1,N
1560936035.2,286047000.4,N
1560936055.0,286047000.3,N
1560936055.9,286047000.3,N
1560936075.7,286047000.7,N
1560936095.5,286047000.6,N
1560936115.4,286047000.9,N
1560936135.2,286047002.3,N
1560936155.1,286047000.6,N
1560936156.0,286047000.6,N
1560936175.8,286047000.2,N
1560936195.6,286047002.4,N
1560936215.5,286047002.2,N
1560936235.3,286047000.3,N
1560936255.2,286047000.6,N
1560936275.9,286047002.5,N
1560936295.7,286047000.3,N
1560936315.6,286047000.3,N
1560936335.4,286047000.8,N
1560936355.2,286047001.0,N
1560936375.1,286047001.0,N
1560936376.0,286047001.0,N
1560936395.8,286047002.4,N
1560936415.7,286047002.8,N
1560936435.5,286047001.0,N
1560936455.3,286047000.5,N
1560936475.2,286047000.0,N
1560936495.0,286047000.2,N
1560936495.9,286047000.2,N
1560936515.8,286047000.1,N
1560936535.6,286047000.6,N
1560936555.4,286047000.7,N
1560936575.3,286046998.5,N
1560936595.1,286046998.5,N
1560936615.9,286047000.8,N
1560936635.7,286047000.4,N
1560936655.5,286047000.4,N
1560936675.4,286047000.5,N
1560936695.2,286047000.4,N
1560936715.0,286047001.2,N
1560936715.9,286047001.2,N
1560936735.8,286047001.0,N
1560936755.6,286047000.7,N
1560936775.5,286047000.2,N
1560936795.3,286046999.7,N
1560936815.1,286047000.0,N
1560936835.9,286047002.4,N
1560936855.7,286047002.6,N
1560936875.5,286047000.2,N
1560936895.4,286047000.5,N
1560936915.2,286047000.6,N
1560936935.1,286047000.0,N
1560936936.0,286047000.0,N
1560936955.8,286047001.6,N
1560936975.6,286047002.3,N
1560936995.5,286047000.1,N
1560937015.3,286046999.9,N
1560937035.2,286047002.0,N
1560937055.0,286047001.8,N
1560937055.9,286047001.8,N
1560937075.7,286047001.3,N
1560937095.6,286046999.7,N
1560937115.4,286047002.5,N
1560937135.3,286047002.3,N
1560937155.1,286047002.2,N
1560937175.8,286047001.9,N
1560937195.7,286047004.0,Y
1560937215.5,286047001.9,P
1560937235.4,286047001.8,P
1560937255.2,286047002.3,P
1560937275.0,286047001.9,Y
1560937275.9,286047001.9,P
1560937295.8,286047002.3,P
1560937315.6,286047002.7,P
1560937335.5,286046998.3,Y
1560937355.3,286046995.6,P
1560937375.1,286046995.4,N
1560937395.9,286046996.2,N
1560937415.7,286046995.0,N
1560937465.6,286046996.0,E
1560937475.5,286046996.8,N
1560937495.3,286046999.8,P
1560937515.2,286047002.5,N
1560937535.9,286047002.5,N
1560937555.7,286047001.9,N
1560937575.6,286047004.3,N
1560937595.4,286047003.9,N
1560937615.3,286047001.3,N
1560937635.1,286047004.4,N
1560937636.0,286047004.4,N
1560937655.8,286047001.3,N
1560937675.7,286047001.8,N
1560937695.5,286047002.6,N
1560937715.3,286047002.4,N
1560937735.2,286047000.2,N
1560937755.0,286046998.1,N
1560937755.9,286046998.1,N
1560937775.8,286047000.4,N
1560937795.6,286046998.6,N
1560937815.5,286046999.4,N
1560937835.3,286046999.0,N
1560937855.1,286046999.3,N
1560937875.9,286046998.8,N
1560937895.7,286046998.3,N
1560937915.6,286046998.5,N
1560937935.4,286047001.2,N
1560937955.2,286047001.2,N
1560937975.1,286046998.5,N
1560937976.0,286046998.5,N
1560937995.8,286047000.2,N
1560938015.6,286046998.8,N
1560938035.5,286046998.9,N
1560938055.3,286047000.5,N
1560938075.2,286047001.0,N
1560938095.9,286047000.5,N
1560938115.7,286047000.8,N
1560938135.6,286046998.9,N
1560938155.4,286046996.8,N
1560938175.2,286046999.1,N
1560938195.1,286046997.9,N
1560938196.0,286046997.9,N
1560938215.8,286046997.1,N
1560938235.7,286046996.7,N
1560938255.5,286046996.8,N
1560938275.3,286046997.0,N
1560938295.2,286046996.5,N
1560938315.9,286046997.2,N
1560938335.7,286046998.0,N
1560938355.6,286046997.6,N
1560938375.4,286046997.5,N
1560938395.3,286046998.0,N
